Miscellaneous Local Product
Issued by NWS Hastings, NE

Home | Current Version | Previous Version | Graphics & Text | Print | Product List | Glossary On
Versions: 1 2 3 4 5 6 7 8 9 10 11 12 13 14 15 16 17 18 19 20 21 22 23 24 25 26 27 28 29 30 31 32 33 34 35 36 37 38 39 40 41 42 43 44 45 46 47 48 49 50
000
AXUS43 KGID 191402
MISGRI

GID CWA HOURLY WEATHER ROUNDUP
NATIONAL WEATHER SERVICE HASTINGS NE
900 AM CDT SUN APR 19 2015

NOTE: "FAIR" INDICATES FEW OR NO CLOUDS BELOW 12,000 FEET WITH NO
SIGNIFICANT WEATHER AND/OR OBSTRUCTIONS TO VISIBILITY.

...SOUTH CENTRAL NEBRASKA...

CITY           SKY/WX    TMP DP  RH WIND       PRES   REMARKS
GRAND ISLAND   LGT RAIN  48  46  93 N15       29.84R FOG
HASTINGS       LGT RAIN  49  46  90 N20       29.83R FOG
KEARNEY        CLOUDY    46  45  93 N16G23    29.86S
ORD            CLOUDY    47  40  76 N29G39    29.85R
YORK           LGT RAIN  50  48  93 N13G22    29.82R
AURORA         LGT RAIN  49  49  98 N13       29.83R
LEXINGTON      LGT RAIN  46  41  82 N36G47    29.90R
HOLDREGE       LGT RAIN  47  45  90 N18G26    29.86R
HEBRON         CLOUDY    53  49  86 N12       29.78S

...NEBRASKA PANHANDLE...

CITY           SKY/WX    TMP DP  RH WIND       PRES   REMARKS
CHADRON        SUNNY     40  31  70 NW14      30.11S WCI  32
ALLIANCE       MOSUNNY   40  30  67 NW21G28   30.07R WCI  30
SCOTTSBLUFF    MOSUNNY   40  32  73 NW20G26   30.12S WCI  30
SIDNEY         SUNNY     39  30  70 N23       30.08R WCI  28

...WESTERN AND NORTH CENTRAL NEBRASKA...

CITY           SKY/WX    TMP DP  RH WIND       PRES   REMARKS
VALENTINE      SUNNY     45  33  63 N21G29    29.99R
AINSWORTH      MOSUNNY   44  36  73 N26G33    29.95S
ONEILL         CLOUDY    47  42  81 NW24G35   29.88R
BROKEN BOW     CLOUDY    46  38  73 N32G41    29.89R
IMPERIAL       CLOUDY    44  35  70 N25G36    30.00R
NORTH PLATTE   CLOUDY    46  39  76 N23G35    29.96R
MCCOOK         LGT RAIN  45  39  79 N23G36    29.94R

...EASTERN NEBRASKA...

CITY           SKY/WX    TMP DP  RH WIND       PRES   REMARKS
NORFOLK        NOT AVBL
SO SIOUX CITY  CLOUDY    53  48  83 NW21G32   29.74S
TEKAMAH        LGT RAIN  55  52  89 NW22      29.73R
COLUMBUS       CLOUDY    50  43  76 N17       29.81S
ALBION         CLOUDY    50  43  78 N22G31    29.80R
OMAHA EPPLEY   LGT RAIN  55  54  96 NW8       29.73R FOG
OFFUTT AFB     HVY RAIN  55  55  99 W9        29.72S FOG
MILLARD        LGT RAIN  55  54  95 NW8       29.73S
LINCOLN        LGT RAIN  53  50  89 NW17G25   29.78R
NEBRASKA CITY  LGT RAIN  54  54 100 NW13G20   29.72S
BEATRICE       CLOUDY    54  52  93 NW10      29.76S
FALLS CITY     CLOUDY    56  53  90 W13       29.71F

...NORTHERN KANSAS...

CITY           SKY/WX    TMP DP  RH WIND       PRES   REMARKS
GOODLAND       LGT RAIN  43  40  89 N28G37    29.99R
HILL CITY      LGT RAIN  50  47  89 N20G26    29.87R
NORTON         LGT RAIN  48  43  81 NW24      29.88R
PHILLIPSBURG   RAIN      54  54 100 NW14G22   29.86R
SMITH CENTER   CLOUDY    50  48  93 N17       29.82S
BELOIT         CLOUDY    54  50  87 NW10      29.78R
HAYS           CLOUDY    54  45  71 N16       29.82R
RUSSELL        MOSUNNY   53  50  89 N12       29.79R
CONCORDIA      CLOUDY    53  52  96 NW8       29.77R
SALINA         MOSUNNY   55  51  86 NW8       29.77F
TOPEKA         CLOUDY    56  53  90 NW8       29.74S



USA.gov is the U.S. government's official web portal to all federal, state and local government web resources and services.